sat.trackr.live / text

‹ back to catalog

STARLINK-3341

NORAD 50817 · 2022-001Q

PAYLOAD ACTIVE UNKNOWN

§ Identity

Operator
Country
US
Launch date
2022-01-06
Launch site
AFETR
Launch vehicle
Mass (kg)
RCS (m²)

Purposes: comms

External: N2YO · Heavens-Above · Gunter

§ Orbital elements

Epoch: 2026-09-20T00:21:57.916224Z

Period
93.79 min
Inclination
53.1613°
Eccentricity
0.0001080
Mean motion
15.35384114 rev/d
Perigee alt
459.0 km
Apogee alt
460.5 km
Semi-major
6,837.9 km
B*
9.3271e-5
RAAN
4.3869°
Arg perigee
99.9242°
Mean anomaly
260.1883°
Rev number
25,991

§ Raw data

STARLINK-33411 50817U 22001Q   26263.01525366  .00002873  00000+0  93271-4 0  99982 50817  53.1613   4.3869 0001080  99.9242 260.1883 15.35384114259915

JSON: /api/v1/satellites/50817 · /tle

For live sub-satellite position, see the globe view (requires WebGL).

§ Visibility from observer

Set your observer location to see the next 7 days of passes ≥ 10°. The values pass through the URL so the page stays shareable.

No JS? Fill the form by hand. The geolocation button needs JavaScript.